{"data":{"norad_id":69872,"epoch":"2026-09-20T04:22:20.807328Z","epoch_age_seconds":49089,"freshness":"FRESH","line1":"1 69872U 26156D   26263.18218527  .00000634  00000+0  70041-4 0  9993","line2":"2 69872  97.7429 162.2455 0002619 199.2443 160.8677 14.90821165 11157","mean_motion":14.90821165,"eccentricity":0.0002619,"inclination_deg":97.7429,"raan_deg":162.2455,"arg_perigee_deg":199.2443,"mean_anomaly_deg":160.8677,"bstar":7.0041e-5,"rev_number":1115,"period_min":96.591062282108,"perigee_km":593.5473891119,"apogee_km":597.20011404357,"semimajor_km":6973.5107515777,"source":"CELESTRAK","updated_at":"2026-09-20T09:00:25.162863Z"}}